TimeCST,TemperatureF,Dew PointF,Humidity,Sea Level PressureIn,VisibilityMPH,Wind Direction,Wind SpeedMPH,Gust SpeedMPH,PrecipitationIn,Events,Conditions,WindDirDegrees,DateUTC
12:53 AM,55.0,52.0,89,29.93,8.0,Calm,Calm,-,N/A,,Clear,0,2012-12-24 06:53:00
1:53 AM,54.0,51.1,90,29.92,8.0,Calm,Calm,-,N/A,,Clear,0,2012-12-24 07:53:00
2:53 AM,53.1,51.1,93,29.92,9.0,Calm,Calm,-,N/A,,Clear,0,2012-12-24 08:53:00
3:53 AM,51.1,48.9,92,29.91,8.0,Calm,Calm,-,N/A,,Clear,0,2012-12-24 09:53:00
4:53 AM,48.9,48.0,97,29.91,7.0,Calm,Calm,-,N/A,,Clear,0,2012-12-24 10:53:00
5:53 AM,46.9,46.9,100,29.91,8.0,Calm,Calm,-,N/A,,Clear,0,2012-12-24 11:53:00
6:53 AM,46.9,46.0,97,29.94,6.0,Calm,Calm,-,N/A,,Clear,0,2012-12-24 12:53:00
7:53 AM,52.0,46.9,83,29.96,10.0,NE,5.8,-,N/A,,Clear,50,2012-12-24 13:53:00
8:53 AM,54.0,48.0,80,29.97,10.0,NE,8.1,-,N/A,,Clear,50,2012-12-24 14:53:00
9:53 AM,55.9,37.9,51,29.99,10.0,NE,11.5,19.6,N/A,,Clear,40,2012-12-24 15:53:00
10:53 AM,60.1,35.1,39,29.98,10.0,NE,12.7,-,N/A,,Clear,40,2012-12-24 16:53:00
11:53 AM,63.0,33.1,33,29.94,10.0,East,8.1,-,N/A,,Clear,80,2012-12-24 17:53:00
12:53 PM,66.9,32.0,27,29.89,10.0,NE,9.2,-,N/A,,Clear,50,2012-12-24 18:53:00
1:53 PM,69.1,30.0,23,29.85,10.0,ENE,9.2,-,N/A,,Clear,60,2012-12-24 19:53:00
2:53 PM,69.1,30.0,23,29.81,10.0,East,10.4,-,N/A,,Clear,80,2012-12-24 20:53:00
3:53 PM,69.1,32.0,25,29.80,10.0,East,9.2,-,N/A,,Clear,90,2012-12-24 21:53:00
4:53 PM,68.0,34.0,28,29.78,10.0,East,8.1,-,N/A,,Clear,80,2012-12-24 22:53:00
5:53 PM,64.9,34.0,32,29.76,10.0,NE,6.9,-,N/A,,Clear,50,2012-12-24 23:53:00
6:53 PM,63.0,34.0,34,29.77,10.0,NE,4.6,-,N/A,,Clear,50,2012-12-25 00:53:00
7:53 PM,62.1,32.0,32,29.77,10.0,NE,5.8,-,N/A,,Clear,50,2012-12-25 01:53:00
8:53 PM,61.0,30.9,32,29.75,10.0,ENE,6.9,-,N/A,,Clear,60,2012-12-25 02:53:00
9:53 PM,59.0,34.0,39,29.74,10.0,ENE,4.6,-,N/A,,Clear,60,2012-12-25 03:53:00
10:18 PM,60.8,35.6,39,29.74,10.0,NNE,5.8,-,N/A,,Mostly Cloudy,30,2012-12-25 04:18:00
10:36 PM,60.8,33.8,36,29.76,10.0,North,8.1,-,N/A,,Overcast,350,2012-12-25 04:36:00
10:53 PM,61.0,35.1,38,29.74,10.0,NNE,5.8,-,N/A,,Overcast,30,2012-12-25 04:53:00
11:53 PM,62.1,44.1,52,29.70,10.0,NE,3.5,-,N/A,,Overcast,40,2012-12-25 05:53:00